Showing default

TYCHE, 60496

Orbit data source: Space-Track

TYCHE, 60496 is a UK payload satellite in SSO that was launched on Fri, 16 Aug 2024 UTC via an FALCON 9 launch vehicle from the Air Force Western Test Range (AFWTR). Payloads include a variety of satellites, spacecraft, and rockets equipped with specific instruments for various scientific and technological missions. These include communications satellites like Starlink; space stations such as the ISS; scientific satellites like the Hubble; Earth observation satellites from companies like Planet Labs, Umbra, and HawkEye 360; GPS; miniature CubeSats for education and research; and military/defense satellites.

Loading next visibility...
TYCHE details
Identifier
60496, 2024-149AE
Orbit
SSO
Last TLE update17 hours ago
Origin
Flag of UKUKSC (UK)
ManufacturerSSTL
MissionOperational spacecraft
Bus & MotorCARBONITE+, Unknown motor
Mass150 kg wet, 150 kg dry
Launch date (UTC)
2024-08-16 (4 months ago)
Launch vehicle
FALCON 9
Launch site
Air Force Western Test Range (AFWTR)
Object type
Payload
Rocket body
Debris
Shape & HBRUnknown
Radar Cross SectionMedium (>0.1 m² and <1 m²)

Expand to show TLE details & history

TLE from 17 hours ago
0 TYCHE
1 60496U 24149AE  24355.90938779  .00007555  00000-0  34882-3 0  9996
2 60496  97.4300  69.5194 0006026  55.8619 304.3187 15.20476440 19146
Epoch: 2024-12-20T21:49Z
Definitive object data (Epoch: 2024-12-20T21:49:31.105Z)
Latitude-0.00001°
Longitude12.17166°
Altitude505.156 km
Speed7.613 km/s
True Right ascension04h 38m 04s
True Declination0° 00' 00"
Sunlit
Object was in full shadow at TLE epoch
Visualization TLE readout
Latitude-1.76939°
Longitude-167.37664°
Altitude510.273 km
Speed7.607 km/s
Apparent Right ascension19h 40m 53s
Apparent Declination-39° 47' 09"
Sunlit
Object is in daylight
Visualization observer readout
Local Sidereal Time13:27:04
Azimuth121.012° SE
Elevation-26.495°
Doppler factor1
Orbital elements
Apogee altitude505.514 km
Perigee altitude497.223 km
Semi-major axis6,879.506 km
Eccentricity0.0006026
Inclination97.43°
RAAN69.5194°
Arg. of periapsis55.8619°
True anomaly304.26164°
Mean anomaly304.3187°
Eccentric anomaly304.29017°
Mean motion3.80371 °/min
BSTAR0.00034882
Orbital period94.64 mins
Loading maneuver chart data...
Loading historical data...
Loading historical data...
Loading historical data...
Loading historical data...
Loading historical data...
Loading historical data...
Loading historical data...

TYCHE Visibility forecast

Observer location: undefined°, undefined

Span
Click to sort rows by Start time (UTC) header in descending order
Start Az.
Max El. time (UTC)
Max El. Az.
Max El.
End time (UTC)
End Az.
5 mins2024-12-21 17:20:56.889Z40.736° NE2024-12-21 17:23:56.889Z101.696° ESE23.579°2024-12-21 17:25:56.889Z144.533° SSE
4 mins2024-12-21 18:55:56.889Z320.706° NNW2024-12-21 18:56:56.889Z301.365° NW17.285°2024-12-21 18:59:56.889Z246.801° WSW
5 mins2024-12-22 05:32:56.889Z195.491° SSW2024-12-22 05:34:56.889Z246.268° WSW34.569°2024-12-22 05:37:56.889Z330.118° NNW
|